Location: Palomar Mountain Lodge
(33.3110°N, 116.8495°W)
Time: 23:43:41
(UTC-08:00)

SWIFT - Pass Details

Date: 14 June 2018
Orbit: 546 x 561 km, 20.6° (Epoch: 15 November)

Event Time Altitude Azimuth Distance (km) Brightness Sun altitude
Rises 21:20:11 0° 240° (WSW) 2,697 6.1 -14.8°
Reaches altitude 10° 21:23:26 10° 214° (SW) 1,800 4.9 -15.3°
Enters shadow 21:25:20 14° 187° (S) 1,577 4.3 -15.6°
